Weather History for KCIU - March, 2013

Change the Weather History Date:

Wednesday, March 13, 2013

  Actual Average Record
Temperature  
Mean Temperature 18 °F -  
Max Temperature 24 °F 33 °F 50 °F (1990)
Min Temperature 12 °F 9 °F -11 °F (1992)
Degree Days  
Heating Degree Days 47    
Moisture  
Dew Point 13 °F    
Average Humidity 81    
Maximum Humidity 100    
Minimum Humidity 59    
Precipitation  
Precipitation 0.00 in - - ()
Sea Level Pressure  
Sea Level Pressure 29.94 in    
Wind  
Wind Speed 12 mph (NW)    
Max Wind Speed 31 mph    
Max Gust Speed 39 mph    
Visibility 7 miles    
Events      
Averages and records for this station are not official NWS values.
T = Trace of Precipitation, MM = Missing Value Source: NWS Daily Summary

Daily Weather History Graph

Daily Weather History Graph

Search for Another Location

Airport or City:

Trip Planner

Search our weather history database for the weather conditions in past years. The results will help you decide how hot, cold, wet, or windy it might be!

Date:

Astronomy

Mar. 13, 2013 Rise Set
Actual Time 7:53 AM EDT 7:41 PM EDT
Civil Twilight 7:24 AM EDT 8:11 PM EDT
Nautical Twilight 6:49 AM EDT 8:46 PM EDT
Astronomical Twilight 6:13 AM EDT 9:21 PM EDT
Moon 8:24 AM EDT (3/13) 10:07 PM EDT (3/13)
Length of Visible Light 12h 47m
Length of Day
11h 47m
Waxing Crescent, 4% of the Moon is Illuminated
Mar 13
Waxing Crescent
Mar 19
First Quarter
Mar 27
Full
Apr 3
Last Quarter
Apr 10
New

Hourly Weather History & Observations

Time (EDT) Temp. Windchill Dew Point Humidity Pressure Visibility Wind Dir Wind Speed Gust Speed Precip Events Conditions
12:15 AM 17.6 °F 12.3 °F 17.6 °F 100% 29.79 in 10.0 mi WSW 3.5 mph - N/A   Scattered Clouds
12:35 AM 17.6 °F 12.3 °F 17.6 °F 100% 29.79 in 10.0 mi SW 3.5 mph - N/A   Mostly Cloudy
12:55 AM 17.6 °F 12.3 °F 15.8 °F 93% 29.79 in 10.0 mi SW 3.5 mph - N/A   Overcast
1:15 AM 17.6 °F 10.7 °F 15.8 °F 93% 29.79 in 10.0 mi WSW 4.6 mph - N/A   Overcast
1:55 AM 17.6 °F 10.7 °F 17.6 °F 100% 29.79 in 10.0 mi WSW 4.6 mph - N/A   Overcast
2:55 AM 17.6 °F 10.7 °F 17.6 °F 100% 29.79 in 10.0 mi West 4.6 mph - N/A   Overcast
3:15 AM 17.6 °F 9.3 °F 17.6 °F 100% 29.79 in 10.0 mi West 5.8 mph - N/A   Overcast
3:35 AM 17.6 °F 9.3 °F 15.8 °F 93% 29.79 in 10.0 mi West 5.8 mph - N/A   Overcast
3:55 AM 17.6 °F 10.7 °F 15.8 °F 93% 29.79 in 8.0 mi West 4.6 mph - N/A   Overcast
4:15 AM 17.6 °F 5.7 °F 17.6 °F 100% 29.79 in 4.0 mi NW 10.4 mph - N/A   Overcast
4:55 AM 15.8 °F 1.4 °F 15.8 °F 100% 29.80 in 9.0 mi NNW 13.8 mph - N/A   Overcast
5:15 AM 15.8 °F 2.1 °F 12.2 °F 86% 29.82 in 10.0 mi NNW 12.7 mph - N/A   Overcast
5:35 AM 14.0 °F -0.8 °F 12.2 °F 93% 29.82 in 8.0 mi NNW 13.8 mph 19.6 mph N/A   Mostly Cloudy
5:55 AM 12.2 °F -2.5 °F 10.4 °F 92% 29.83 in 10.0 mi NNW 12.7 mph 21.9 mph N/A   Mostly Cloudy
6:15 AM 12.2 °F -1.8 °F 10.4 °F 92% 29.84 in 9.0 mi NNW 11.5 mph - N/A   Mostly Cloudy
6:35 AM 12.2 °F -1.0 °F 12.2 °F 100% 29.85 in 7.0 mi NNW 10.4 mph - N/A   Mostly Cloudy
6:55 AM 12.2 °F -1.8 °F 12.2 °F 100% 29.86 in 7.0 mi NNW 11.5 mph - N/A   Mostly Cloudy
7:15 AM 14.0 °F 2.9 °F 12.2 °F 93% 29.86 in 3.0 mi NNW 8.1 mph - N/A   Overcast
7:35 AM 14.0 °F 1.2 °F 12.2 °F 93% 29.87 in 10.0 mi NNW 10.4 mph - N/A   Overcast
7:55 AM 14.0 °F 2.9 °F 12.2 °F 93% 29.87 in 3.0 mi NNW 8.1 mph - N/A   Overcast
8:15 AM 14.0 °F 6.5 °F 12.2 °F 93% 29.88 in 3.0 mi NNW 4.6 mph - N/A   Overcast
8:35 AM 14.0 °F 3.9 °F 12.2 °F 93% 29.89 in 2.5 mi NW 6.9 mph - N/A   Overcast
8:55 AM 15.8 °F 2.7 °F 12.2 °F 86% 29.89 in 7.0 mi NW 11.5 mph - N/A   Overcast
9:15 AM 15.8 °F 1.4 °F 12.2 °F 86% 29.89 in 2.5 mi NNW 13.8 mph 24.2 mph N/A   Overcast
9:35 AM 15.8 °F 1.4 °F 12.2 °F 86% 29.90 in 5.0 mi NNW 13.8 mph 25.3 mph N/A   Overcast
9:55 AM 15.8 °F -1.5 °F 12.2 °F 86% 29.90 in 8.0 mi NNW 20.7 mph 24.2 mph N/A   Overcast
10:15 AM 17.6 °F 0.1 °F 12.2 °F 79% 29.90 in 2.5 mi NW 23.0 mph - N/A   Mostly Cloudy
10:35 AM 15.8 °F -2.7 °F 10.4 °F 79% 29.91 in 3.0 mi NW 24.2 mph 31.1 mph N/A   Mostly Cloudy
10:55 AM 17.6 °F 0.9 °F 10.4 °F 73% 29.92 in 1.0 mi NW 20.7 mph 32.2 mph N/A   Overcast
11:15 AM 17.6 °F 2.2 °F 12.2 °F 79% 29.93 in 10.0 mi NW 17.3 mph 26.5 mph N/A   Partly Cloudy
11:35 AM 17.6 °F 0.1 °F 12.2 °F 79% 29.93 in 5.0 mi NW 23.0 mph 32.2 mph N/A   Partly Cloudy
11:55 AM 19.4 °F 4.1 °F 12.2 °F 74% 29.93 in 5.0 mi NW 18.4 mph 32.2 mph N/A   Partly Cloudy
12:15 PM 19.4 °F 4.5 °F 12.2 °F 74% 29.94 in 8.0 mi NW 17.3 mph 31.1 mph N/A   Scattered Clouds
12:35 PM 19.4 °F 2.8 °F 10.4 °F 68% 29.94 in 6.0 mi NW 21.9 mph 36.8 mph N/A   Partly Cloudy
12:55 PM 19.4 °F 2.8 °F 12.2 °F 74% 29.95 in 4.0 mi NW 21.9 mph 34.5 mph N/A   Clear
1:15 PM 19.4 °F 2.8 °F 12.2 °F 74% 29.96 in 9.0 mi NW 21.9 mph 27.6 mph N/A   Clear
1:35 PM 21.2 °F 5.2 °F 12.2 °F 68% 29.97 in 7.0 mi NW 21.9 mph 33.4 mph N/A   Clear
1:55 PM 21.2 °F 4.5 °F 12.2 °F 68% 29.97 in 10.0 mi NW 24.2 mph 31.1 mph N/A   Clear
2:15 PM 21.2 °F 4.2 °F 12.2 °F 68% 29.96 in 5.0 mi NW 25.3 mph 36.8 mph N/A   Clear
2:35 PM 23.0 °F 5.7 °F 10.4 °F 59% 29.95 in 3.0 mi NW 28.8 mph 36.8 mph N/A   Clear
2:55 PM 21.2 °F 4.5 °F 10.4 °F 63% 29.97 in 3.0 mi NW 24.2 mph 36.8 mph N/A   Clear
3:15 PM 21.2 °F 4.9 °F 10.4 °F 63% 29.97 in 6.0 mi NW 23.0 mph 34.5 mph N/A   Clear
3:35 PM 21.2 °F 4.5 °F 10.4 °F 63% 29.97 in 7.0 mi NW 24.2 mph 32.2 mph N/A   Clear
3:55 PM 24.8 °F 9.3 °F 12.2 °F 59% 29.97 in 8.0 mi NW 24.2 mph 33.4 mph N/A   Partly Cloudy
4:15 PM 24.8 °F 8.4 °F 12.2 °F 59% 29.97 in 3.0 mi NW 27.6 mph 39.1 mph N/A   Partly Cloudy
4:35 PM 23.0 °F 7.6 °F 12.2 °F 63% 29.99 in 7.0 mi NW 21.9 mph 34.5 mph N/A   Clear
4:55 PM 24.8 °F 8.7 °F 14.0 °F 64% 29.98 in 3.0 mi WNW 26.5 mph 36.8 mph N/A   Clear
5:15 PM 24.8 °F 7.6 °F 14.0 °F 64% 29.98 in 4.0 mi WNW 31.1 mph 36.8 mph N/A   Clear
5:35 PM 24.8 °F 9.6 °F 14.0 °F 64% 30.00 in 4.0 mi WNW 23.0 mph 38.0 mph N/A   Clear
5:55 PM 24.8 °F 9.3 °F 14.0 °F 64% 30.01 in 5.0 mi NW 24.2 mph 38.0 mph N/A   Clear
6:15 PM 24.8 °F 9.6 °F 15.8 °F 69% 30.03 in 7.0 mi WNW 23.0 mph 35.7 mph N/A   Clear
6:35 PM 23.0 °F 7.6 °F 15.8 °F 74% 30.03 in 8.0 mi NW 21.9 mph 32.2 mph N/A   Clear
6:55 PM 24.8 °F 9.6 °F 14.0 °F 64% 30.04 in 10.0 mi NW 23.0 mph 31.1 mph N/A   Clear
7:15 PM 24.8 °F 11.5 °F 14.0 °F 64% 30.05 in 9.0 mi WNW 17.3 mph 29.9 mph N/A   Clear
7:35 PM 23.0 °F 11.1 °F 15.8 °F 74% 30.06 in 10.0 mi WNW 12.7 mph 27.6 mph N/A   Clear
7:55 PM 21.2 °F 6.4 °F 15.8 °F 80% 30.07 in 10.0 mi WNW 18.4 mph 28.8 mph N/A   Clear
8:15 PM 21.2 °F 7.8 °F 15.8 °F 80% 30.07 in 10.0 mi WNW 15.0 mph 26.5 mph N/A   Clear
8:35 PM 21.2 °F 9.5 °F 14.0 °F 74% 30.08 in 10.0 mi WNW 11.5 mph 17.3 mph N/A   Clear
8:55 PM 21.2 °F 8.9 °F 14.0 °F 74% 30.08 in 10.0 mi WNW 12.7 mph 19.6 mph N/A   Clear
9:15 PM 21.2 °F 10.1 °F 14.0 °F 74% 30.09 in 10.0 mi West 10.4 mph - N/A   Clear
9:35 PM 21.2 °F 9.5 °F 14.0 °F 74% 30.09 in 10.0 mi WNW 11.5 mph 17.3 mph N/A   Clear
9:55 PM 19.4 °F 7.2 °F 14.0 °F 80% 30.10 in 10.0 mi West 11.5 mph - N/A   Clear
10:15 PM 19.4 °F 8.6 °F 14.0 °F 80% 30.10 in 10.0 mi West 9.2 mph - N/A   Clear
10:35 PM 19.4 °F 10.4 °F 12.2 °F 74% 30.11 in 10.0 mi West 6.9 mph - N/A   Clear
10:55 PM 17.6 °F 6.4 °F 14.0 °F 86% 30.11 in 10.0 mi West 9.2 mph - N/A   Clear
11:15 PM 17.6 °F 6.4 °F 14.0 °F 86% 30.11 in 10.0 mi West 9.2 mph - N/A   Clear
11:35 PM 17.6 °F 5.7 °F 15.8 °F 93% 30.11 in 10.0 mi West 10.4 mph - N/A   Clear
11:55 PM 17.6 °F 7.3 °F 15.8 °F 93% 30.11 in 10.0 mi West 8.1 mph - N/A   Clear